Theta_e
352 357 367 368 369 368 367 363 362 362 362 364 364 363 364 363 363 364 364 363 363 361 360 360 360 360 359 359 359 359 358 358 359 360 359 362 363 362 362 360 359 359 365
353 357 367 368 369 369 367 365 364 364 362 364 364 362 361 361 361 362 363 362 361 360 360 359 358 357 356 355 355 357 357 357 357 358 361 358 363 362 362 360 359 360 365
352 358 361 367 369 369 367 366 365 364 362 362 363 362 361 360 360 361 362 360 360 360 359 361 358 358 359 357 356 356 357 356 358 361 359 361 341 363 363 362 361 363 364
353 355 358 367 368 369 367 366 366 364 362 363 364 363 362 361 362 361 360 360 359 359 358 359 359 358 357 357 357 356 355 358 359 362 359 357 347 347 363 363 363 362 362
352 354 360 369 369 368 368 368 368 367 366 366 365 364 363 362 362 361 360 361 360 359 359 359 358 357 356 356 355 355 357 359 361 359 354 353 350 353 362 364 362 363 362
351 355 365 369 368 367 368 368 368 368 367 365 364 363 363 362 362 362 361 361 360 359 358 357 355 354 353 352 352 353 356 358 357 354 355 357 355 364 363 363 364 365 364
350 356 361 368 368 367 367 367 365 364 364 364 363 363 362 362 361 360 361 362 361 360 359 357 357 356 355 356 357 357 358 356 352 351 354 354 356 363 364 362 363 363 363
355 354 358 366 367 366 364 363 363 362 361 361 361 361 361 361 361 360 361 362 361 360 359 358 357 358 359 359 362 363 361 361 353 350 351 354 360 364 364 364 365 364 362
355 353 356 358 362 364 364 363 363 362 363 363 362 362 361 361 361 363 362 360 359 358 359 360 361 362 363 364 365 365 365 364 358 354 353 353 361 363 363 363 364 365 363
350 350 352 356 357 358 358 365 365 363 365 365 362 363 363 364 363 362 363 363 358 359 360 362 363 366 368 368 368 367 366 365 361 358 356 356 362 364 363 362 362 364 365
346 349 351 351 356 355 356 359 366 364 363 364 363 363 363 360 357 357 359 361 366 362 363 365 366 367 369 370 367 368 368 361 359 357 357 362 364 365 364 363 363 363 364
344 346 349 350 350 352 351 357 360 360 357 359 358 361 360 357 356 355 363 365 369 368 367 362 359 364 368 361 361 367 362 360 357 358 358 364 365 367 366 365 364 365 365
345 347 347 349 351 348 350 357 355 358 358 359 363 365 361 355 356 360 361 359 360 365 357 346 347 356 359 360 362 360 359 357 357 357 359 366 366 368 367 365 366 366 367
343 345 347 349 352 349 353 359 356 356 357 357 358 363 363 363 362 367 359 360 359 360 353 347 348 356 361 363 359 361 359 360 357 357 359 366 366 367 368 367 367 367 367
343 346 348 352 359 365 365 359 360 354 354 353 358 358 357 357 362 365 361 361 359 360 360 356 355 356 349 355 354 356 358 357 356 357 359 369 368 367 368 369 368 368 368
344 346 346 353 360 362 361 376 365 362 361 358 356 358 361 362 363 364 365 361 358 357 364 364 362 354 350 357 351 342 344 342 359 359 359 359 362 360 362 367 367 369 369
345 346 346 351 356 362 371 367 370 363 355 357 356 368 362 362 364 370 363 361 359 363 367 366 371 358 356 353 346 349 352 344 352 361 361 357 348 353 362 367 366 367 370
345 348 350 348 354 360 363 366 361 359 359 357 358 357 364 364 368 371 361 358 365 361 367 364 357 364 361 355 351 345 353 355 358 362 361 361 360 360 361 362 365 365 369
349 351 354 355 355 359 364 362 362 362 360 358 359 356 363 362 362 365 361 360 358 355 363 364 361 363 359 354 350 352 354 350 351 358 360 364 365 362 361 364 356 357 369
349 353 355 358 361 362 361 362 359 357 357 357 356 359 368 362 363 367 361 362 366 359 362 365 351 348 362 364 353 357 361 354 356 360 361 362 362 363 359 355 354 356 367
347 354 356 359 362 361 359 355 354 352 353 353 354 361 368 364 366 368 361 361 366 360 360 366 362 361 360 357 356 357 357 351 350 351 349 349 354 366 361 360 358 359 361
348 352 358 358 365 361 358 358 357 355 354 353 354 359 362 365 365 366 365 362 363 362 364 363 369 360 361 360 356 351 346 351 345 343 345 341 351 363 360 361 361 357 356
347 352 358 359 364 362 364 361 364 363 360 358 357 359 361 362 362 365 369 366 364 371 358 368 368 367 356 359 362 355 343 340 346 341 338 347 352 357 359 362 361 360 358
346 353 357 361 363 365 365 365 364 356 354 357 363 361 359 363 362 363 367 368 368 363 362 361 365 361 364 356 358 360 360 354 339 339 348 345 348 349 360 362 357 364 365
348 350 355 361 362 366 367 365 365 360 360 359 359 363 368 371 365 364 366 368 369 367 364 366 366 367 363 357 357 355 356 352 351 346 339 344 349 354 359 359 355 361 364
351 351 354 361 363 364 368 367 365 367 360 359 360 357 359 361 363 366 365 368 367 366 365 367 369 367 364 364 362 360 354 349 348 348 346 348 345 347 352 355 351 349 346
Wind_Speed
15 17 15 15 16 16 16 16 16 15 15 14 13 12 12 12 12 12 11 11 10 9 8 8 7 5 4 3 4 4 4 3 3 3 4 5 4 4 3 3 4 9 11
21 18 16 16 17 17 16 15 15 14 15 14 13 12 11 11 11 10 9 9 8 7 7 6 5 4 3 2 2 2 2 1 1 1 3 3 3 3 3 2 2 12 11
23 19 18 17 17 17 17 15 15 14 15 14 11 10 10 9 9 8 8 7 6 5 5 5 4 3 2 2 2 2 1 2 3 6 3 2 4 4 6 5 7 10 10
22 20 18 17 17 17 17 16 14 13 14 12 11 11 10 9 9 7 7 6 5 4 3 3 3 2 2 1 1 1 2 4 6 7 6 9 2 14 9 8 7 8 9
20 20 19 18 17 17 16 15 14 13 12 12 12 11 10 10 9 7 6 6 5 4 4 4 3 3 3 2 2 3 5 6 7 8 9 10 10 14 11 11 10 9 9
21 22 19 18 17 17 15 14 13 12 12 11 11 10 10 9 8 8 6 6 6 5 5 5 5 6 6 6 6 6 7 9 5 3 12 7 8 13 12 9 7 8 8
21 22 19 18 16 15 14 13 13 12 11 10 10 9 9 8 8 7 6 6 5 5 6 7 7 9 8 9 9 9 10 11 6 6 12 8 10 13 11 9 9 8 9
23 21 19 17 15 15 14 14 13 12 11 11 10 10 9 9 8 7 6 6 6 8 8 9 10 11 11 11 11 10 11 11 10 9 10 7 15 14 13 10 8 8 9
22 20 17 16 15 16 14 13 12 11 11 12 11 11 10 9 9 8 7 8 9 10 11 12 13 13 13 12 12 12 12 13 9 8 9 5 16 16 15 13 10 10 10
19 19 17 15 15 13 12 13 12 11 10 10 10 9 10 10 9 11 9 11 13 14 13 14 14 14 15 14 14 15 14 14 10 11 8 3 18 16 15 15 13 12 12
17 18 16 17 14 12 12 12 12 13 11 10 10 11 9 7 11 13 12 15 16 16 15 15 15 15 15 16 17 17 16 7 10 9 5 17 16 17 16 15 14 13 13
20 19 17 17 16 14 12 13 10 11 9 8 9 10 8 9 9 10 10 19 15 15 14 10 13 17 14 8 9 15 7 10 9 8 6 15 17 17 17 16 14 13 14
17 15 18 16 15 16 11 10 7 7 7 8 10 7 9 8 6 3 4 7 8 12 1 6 10 8 8 5 7 8 10 11 8 7 9 20 19 18 16 15 16 15 15
15 16 19 17 13 14 7 9 9 8 8 8 9 9 4 2 4 3 3 5 7 5 9 9 6 13 11 11 11 9 11 9 7 5 9 21 19 18 17 16 16 16 15
13 14 14 13 10 5 5 5 5 6 7 7 8 9 6 5 4 4 4 3 5 6 8 11 9 8 6 8 12 13 13 13 9 3 6 19 6 6 15 17 16 16 15
15 13 13 14 10 6 5 1 3 3 3 3 5 9 9 5 4 4 4 5 6 6 2 2 4 5 1 4 7 6 14 13 5 7 6 6 10 7 14 14 15 16 16
15 14 14 14 14 8 4 4 2 4 6 5 4 2 8 6 5 4 3 5 6 2 3 2 4 7 3 3 6 3 8 11 15 5 4 10 12 21 18 18 17 17 16
16 13 12 13 16 12 7 5 6 6 6 5 4 5 8 6 5 4 5 7 3 4 3 3 2 3 1 4 5 7 1 8 15 5 5 7 9 9 12 14 15 14 14
12 14 10 11 14 16 11 7 8 8 6 5 4 4 9 7 8 5 6 6 2 4 5 1 1 0 3 3 3 7 7 6 15 9 7 3 6 11 7 10 13 11 14
14 14 12 9 8 14 11 8 7 7 6 6 5 4 8 7 8 7 7 8 3 6 4 2 1 5 3 3 6 6 3 6 8 8 6 4 4 7 11 9 3 6 15
16 15 14 11 11 9 9 10 9 9 8 6 6 7 5 5 7 7 6 7 6 6 6 5 4 6 5 4 2 3 3 4 9 8 10 13 13 7 10 10 6 4 6
15 15 15 14 11 10 8 9 8 8 8 8 7 7 9 7 7 6 7 7 6 4 4 3 4 4 3 3 3 3 3 3 5 5 5 5 11 11 5 11 11 10 8
17 17 16 15 12 12 11 8 6 6 6 6 6 6 8 9 9 8 6 7 7 5 4 4 4 5 4 4 5 0 2 2 2 2 3 4 10 7 4 6 10 11 11
17 16 16 15 15 13 13 9 9 7 7 6 4 6 8 12 12 11 10 8 7 5 5 5 5 5 4 4 4 3 4 3 2 2 1 4 8 12 6 2 5 7 9
18 17 17 17 15 14 13 12 8 11 7 7 6 8 8 7 12 13 11 10 8 7 7 6 5 5 4 4 4 3 3 3 6 2 3 3 6 10 4 4 3 4 7
18 17 18 18 16 15 15 15 13 9 12 8 8 8 7 7 8 13 13 11 11 10 9 7 6 7 6 5 4 4 4 5 3 3 4 3 3 5 5 7 5 3 5
Wind_Direction
133 131 133 133 132 133 126 127 127 125 120 115 112 111 112 112 111 109 109 109 106 104 104 102 100 95 80 58 46 47 47 46 62 80 89 96 102 107 122 102 147 109 116
133 134 131 131 135 134 132 135 133 131 128 124 119 118 120 120 120 121 117 113 112 109 107 100 98 91 82 66 29 23 14 325 319 232 149 121 117 145 156 88 348 118 123
134 133 132 135 136 135 137 140 141 141 139 136 132 131 131 132 129 131 129 124 122 119 116 122 114 105 91 70 34 1 319 283 276 258 222 175 36 193 170 129 111 126 127
134 143 138 136 133 136 139 143 147 150 149 148 148 145 146 147 145 147 144 142 137 134 140 141 146 133 125 104 50 318 282 275 259 257 240 152 167 279 189 158 147 142 141
142 139 130 135 135 137 140 145 148 151 154 156 155 156 156 158 158 162 162 163 168 173 175 179 186 201 209 224 246 265 269 275 270 297 265 137 162 201 188 164 163 160 170
153 130 137 138 139 139 141 144 149 151 154 159 164 165 165 171 173 176 181 189 190 197 203 209 215 227 232 234 237 246 259 267 282 317 311 281 149 161 165 176 175 172 170
146 130 142 144 144 145 149 152 155 158 163 169 175 177 180 183 189 195 197 204 212 226 232 238 244 250 250 248 243 241 248 262 265 233 232 223 126 154 151 159 177 169 170
122 141 144 146 148 150 157 158 161 167 174 183 188 192 198 200 200 209 217 226 237 248 250 254 256 258 259 256 250 245 245 255 271 250 259 149 146 156 154 159 169 168 176
137 140 152 156 158 161 164 168 169 176 190 196 194 199 205 211 212 215 223 239 246 255 260 260 260 260 252 250 251 247 243 242 253 276 262 172 163 158 161 163 179 184 181
136 142 155 157 165 171 170 177 178 186 204 183 197 209 211 216 216 225 223 237 244 245 251 255 256 253 254 246 239 237 236 241 239 251 259 115 153 162 166 170 187 199 191
144 149 158 158 164 178 172 177 189 189 195 198 207 214 218 231 219 224 214 232 230 232 238 248 256 253 250 248 240 235 231 228 226 232 236 156 172 170 172 176 188 202 205
155 157 161 163 169 178 181 157 191 187 195 199 205 199 209 232 237 186 228 206 228 222 234 265 270 274 252 249 230 226 225 232 241 229 230 174 176 174 179 181 192 206 215
168 159 162 169 169 176 200 157 185 187 194 199 216 201 211 226 225 224 159 196 221 213 225 323 309 271 225 237 258 192 216 234 230 220 213 175 180 180 181 187 196 206 215
180 171 164 171 168 182 183 171 181 202 193 190 188 205 247 268 277 265 194 178 228 216 164 207 276 286 249 214 229 211 219 229 254 262 208 173 185 182 180 192 206 208 212
179 173 170 156 156 189 186 168 207 200 176 194 166 180 196 229 224 237 211 192 228 225 183 168 177 252 268 326 1 356 292 224 252 173 164 183 161 209 184 192 207 215 214
172 176 180 146 151 196 166 233 208 225 200 214 197 172 194 210 233 251 194 223 251 259 247 284 159 197 160 74 257 37 312 306 240 255 135 146 158 217 255 211 217 213 215
164 183 184 160 155 176 211 175 253 260 216 188 225 142 171 187 253 285 310 304 279 176 224 291 209 181 214 62 233 194 286 280 277 216 193 154 221 214 232 202 210 220 213
169 181 187 180 161 168 195 180 219 237 268 210 213 195 173 174 226 217 227 246 290 286 232 255 282 284 90 189 188 244 181 333 306 246 230 187 214 135 212 249 211 225 207
173 166 182 173 168 164 182 205 206 232 224 271 233 213 164 182 201 214 265 262 225 275 274 119 31 51 315 279 225 252 191 137 268 258 250 223 180 173 204 189 187 231 202
171 167 171 177 180 162 169 190 212 222 238 213 260 255 165 189 193 198 235 264 240 232 225 150 180 249 245 269 289 325 283 201 244 5 341 246 246 204 163 199 175 204 198
173 169 174 185 174 168 170 182 209 210 209 220 213 229 228 207 196 202 234 264 232 248 270 174 181 225 243 232 230 266 269 324 59 61 352 336 327 242 147 167 174 153 218
178 179 175 186 177 181 184 189 197 216 214 206 208 210 198 203 219 230 211 244 265 264 186 222 248 277 276 279 199 203 310 122 42 46 134 262 287 245 193 172 172 174 162
186 182 177 184 184 185 192 199 211 210 222 211 208 206 196 201 211 228 249 222 244 263 261 233 212 239 269 294 256 196 320 9 182 258 346 352 288 287 268 187 177 161 181
193 182 181 182 186 187 204 202 208 212 231 227 235 216 212 194 202 210 219 229 246 255 260 258 222 222 216 273 302 236 216 139 164 106 117 231 285 300 264 217 197 187 167
193 184 183 182 194 190 196 221 199 215 215 227 233 232 222 201 198 206 210 214 225 223 243 257 276 211 225 248 280 316 281 182 227 192 275 172 233 247 251 234 214 198 196
188 188 181 176 187 198 193 203 228 224 214 236 215 238 242 228 210 203 208 203 211 215 228 236 235 231 218 270 287 300 294 287 263 245 224 238 235 253 211 75 344 352 329